Regional Weather Roundup
Issued by NWS

Home | Current Version | Previous Version | Graphics & Text | Print | Product List | Glossary On
Versions: 1 2 3 4 5 6 7 8 9 10 11 12 13 14 15 16 17 18 19 20 21 22 23 24 25 26 27 28 29 30 31 32 33 34 35 36 37 38 39 40 41 42 43 44 45 46 47 48 49
000
ASUS45 KBOU 171707
RWRCO

WEATHER ROUNDUP FOR COLORADO
NATIONAL WEATHER SERVICE DENVER/BOULDER CO
1100 AM MDT WED SEP 17 2014

NOTE: "FAIR" INDICATES FEW OR NO CLOUDS BELOW 12000 FEET WITH NO
SIGNIFICANT WEATHER AND/OR OBSTRUCTIONS TO VISIBILITY.

COZ001>005-013-030-031-171800-
...NORTHWEST COLORADO...

CITY           SKY/WX    TMP DP  RH WIND       PRES   REMARKS
CRAIG          SUNNY     73  42  32 NE9       30.19F
HAYDEN         SUNNY     66  37  34 E8        30.21F
MEEKER         MOSUNNY   71  41  33 CALM      30.20F
MOUNT WERNER   NOT AVBL
STEAMBOAT SPGS SUNNY     63  42  45 W3        30.24F
WALDEN         SUNNY     61  32  33 CALM      30.32F
$$

COZ006>008-011-171800-
...WEST CENTRAL VALLEYS...

CITY           SKY/WX    TMP DP  RH WIND       PRES   REMARKS
GRAND JUNCTION MOSUNNY   71  40  32 S9        30.11F
MONTROSE       MOSUNNY   72  44  36 VRB3      30.18F
EAGLE          MOSUNNY   61  39  44 CALM      30.28F
RIFLE          SUNNY     68  42  38 VRB3      30.17F
DELTA          MOSUNNY   74  42  31 CALM      30.15F HAZE
NUCLA          MOSUNNY   72  45  37 CALM      30.22F
$$

COZ017>023-064>068-171800-
...SOUTHWEST COLORADO...

CITY           SKY/WX    TMP DP  RH WIND       PRES   REMARKS
DURANGO        PTSUNNY   68  50  52 VRB3      30.24S
CORTEZ         SUNNY     68  51  54 SW3       30.20S
PAGOSA SPRINGS PTSUNNY   63  44  49 S3        30.30S
TELLURIDE      NOT AVBL
WOLF CREEK PAS PTSUNNY   50  34  53 NE10      30.57S
$$

COZ009-010-012-014-032>034-037-058>063-171800-
...CENTRAL COLORADO...

CITY           SKY/WX    TMP DP  RH WIND       PRES   REMARKS
ASPEN          SUNNY     68  38  33 VRB5      30.29F
BUENA VISTA    SUNNY     67  33  28 CALM      30.32F
COPPER MTN     SUNNY     59  28  31 W8        30.60S
BERTHOUD PASS  FAIR      48  46  93 N3        30.65S
COTTONWOOD PAS SUNNY     68  28  22 SE3       30.45S
GUNNISON       MOSUNNY   61  37  41 CALM      30.35F
KREMMLING      MOSUNNY   57  34  41 CALM      30.33F
LEADVILLE      SUNNY     62  29  28 CALM      30.43F
MONARCH PASS   SUNNY     52  34  50 SW3       30.69S
SALIDA         SUNNY     69  38  32 CALM      30.35F
SUNLIGHT       SUNNY     61  37  41 CALM      30.53S
WILKERSON PASS NOT AVBL
$$

COZ069>075-171800-
...SAN LUIS VALLEY/SANGRE DE CRISTO MOUNTAINS...

CITY           SKY/WX    TMP DP  RH WIND       PRES   REMARKS
ALAMOSA        PTSUNNY   66  46  48 CALM      30.29F
LA VETA PASS   NOT AVBL
SAGUACHE       MOSUNNY   68  41  37 NW7       30.31F
$$

COZ035-036-038>040-171800-
...NORTHERN COLORADO FRONT RANGE...

CITY           SKY/WX    TMP DP  RH WIND       PRES   REMARKS
DENVER INTL AP PTSUNNY   80  37  21 CALM      30.10F
DMNS CITY PARK   N/A     81  40  23 S2        30.10F
AURORA         PTSUNNY   79  38  23 VRB1      30.13F
FRONT RANGE AP NOT AVBL
ERIE MUNI ARPT SUNNY     80  36  20 CALM      30.08F
BOULDER MUN AP SUNNY     77  43  29 CALM      30.09F
CENTENNIAL     PTSUNNY   78  37  22 VRB3      30.14F
BROOMFIELD     PTSUNNY   79  39  24 CALM      30.13S
FORT COLLINS   MOSUNNY   73  43  33 SW5       30.08F
LONGMONT       MOSUNNY   81  43  26 E3        30.09F
$$

COZ041-046-047-076>085-087-088-171800-
...PIKES PEAK/PALMER DIVIDE AND SOUTHERN FOOTHILLS...

CITY           SKY/WX    TMP DP  RH WIND       PRES   REMARKS
COLO. SPRINGS  PTSUNNY   82  36  19 S5        30.16F
A. F. ACADEMY  SUNNY     80  35  19 N7        30.17F
ELLICOTT       NOT AVBL
FALCON         SUNNY     80  35  19 CALM      30.22S
FORT CARSON    SUNNY     82  40  22 CALM      30.13F
LIMON          SUNNY     83  41  22 NW7       30.10F
MONUMENT HILL  SUNNY     75  32  20 N8        30.22S
TRINIDAD       PTSUNNY   75  44  33 W5        30.14F
$$

COZ042>045-048>051-090-091-171800-
...NORTHEAST COLORADO...

CITY           SKY/WX    TMP DP  RH WIND       PRES   REMARKS
GREELEY ARPT   MOSUNNY   75  45  33 W3        30.07F
AKRON          MOSUNNY   76  46  34 W15       30.04S
BURLINGTON     SUNNY     86  48  26 S8        30.02S
WRAY           SUNNY     83  45  26 SW6       29.99S
STERLING       MOSUNNY   79  55  44 S3        30.00F
HOLYOKE        SUNNY     81  54  39 CALM      29.99F
FORT MORGAN    MOSUNNY   78  45  30 W5        30.05F
$$

COZ086-089-092>099-171800-
...SOUTHEAST COLORADO...

CITY           SKY/WX    TMP DP  RH WIND       PRES   REMARKS
PUEBLO         SUNNY     82  38  20 W6        30.06F
LA JUNTA       MOSUNNY   79  46  31 SW5       30.03F
LAMAR          MOSUNNY   80  49  33 NW7       29.99F
SPRINGFIELD      N/A     81  50  33 E3        30.04S
$$


USA.gov is the U.S. government's official web portal to all federal, state and local government web resources and services.